FW3182 Weather Reports


Display with metric or nautical units.
time (UTC)temp
F
wind
direction
speed
MPH
gust
MPH
rain 1hr
in
rain 24hr
in
rain mn
in
humidity
%
barometer
mb
20260903080204 76 195 0.0 0.0 0.00 0.00 0.00 82 1012.5
20260903075703 76 195 0.0 0.0 0.00 0.00 0.00 81 1012.6
20260903073704 76 195 0.0 0.0 0.00 0.00 0.00 81 1012.6
20260903073203 77 233 0.0 0.0 0.00 0.00 0.00 80 1012.5
20260903072703 77 233 0.0 0.0 0.00 0.00 0.00 80 1012.4
20260903072204 77 233 0.0 0.0 0.00 0.00 0.00 80 1012.5
20260903071703 77 232 0.0 0.0 0.00 0.00 0.00 79 1012.5
20260903071204 77 233 0.0 0.0 0.00 0.00 0.00 79 1012.5
20260903070704 78 233 0.0 0.0 0.00 0.00 0.00 79 1012.6
20260903070204 78 73 0.0 0.0 0.00 0.00 0.00 78 1012.5
20260903065703 78 73 0.0 0.0 0.00 0.00 0.00 78 1012.5
20260903065204 78 73 0.0 0.0 0.00 0.00 0.00 78 1012.5
20260903064704 78 73 0.0 0.0 0.00 0.00 0.00 78 1012.6
20260903064203 78 73 0.0 0.0 0.00 0.00 0.00 78 1012.6
20260903063704 78 73 0.0 0.0 0.00 0.00 0.00 77 1012.5
20260903063203 78 73 0.0 0.0 0.00 0.00 0.00 77 1012.5
20260903061704 79 73 0.0 0.0 0.00 0.00 0.00 77 1012.5
20260903061203 79 73 0.0 0.0 0.00 0.00 0.00 76 1012.5
20260903060704 79 73 0.0 0.0 0.00 0.00 0.00 76 1012.5
20260903060203 79 73 0.0 0.0 0.00 0.00 0.00 76 1012.4
20260903055705 79 73 0.0 0.0 0.00 0.00 0.00 75 1012.6
20260903055204 79 73 0.0 0.0 0.00 0.00 0.00 75 1012.5
20260903054704 80 73 0.0 0.0 0.00 0.00 0.00 75 1012.5
20260903054203 80 73 0.0 0.0 0.00 0.00 0.00 75 1012.5
20260903053704 80 73 0.0 0.0 0.00 0.00 0.00 74 1012.5
20260903052704 80 73 0.0 0.0 0.00 0.00 0.00 74 1012.5
20260903051704 80 109 0.0 0.0 0.00 0.00 0.00 74 1012.4
20260903051203 80 109 0.0 0.0 0.00 0.00 0.00 74 1012.4
20260903050704 80 132 0.0 0.0 0.00 0.00 0.00 74 1012.4
20260903050204 80 136 0.0 0.0 0.00 0.00 0.00 74 1012.4
20260903045703 80 136 0.0 0.0 0.00 0.00 0.00 73 1012.3
20260903045204 80 161 0.0 0.0 0.00 0.00 0.00 73 1012.2
20260903044703 81 181 0.0 0.0 0.00 0.00 0.00 73 1012.2
20260903042703 81 182 0.0 0.0 0.00 0.00 0.00 72 1012.3
20260903042204 81 182 0.0 0.0 0.00 0.00 0.00 71 1012.3
20260903041703 81 182 0.0 0.0 0.00 0.00 0.00 71 1012.4
20260903040703 82 182 0.0 0.0 0.00 0.00 0.00 70 1012.3
20260903035703 82 182 0.0 0.0 0.00 0.00 0.00 69 1012.3
20260903035204 83 182 0.0 0.0 0.00 0.00 0.00 68 1012.3
20260903034703 83 155 0.0 1.0 0.00 0.00 0.00 68 1012.3
20260903034204 83 172 0.0 0.0 0.00 0.00 0.00 68 1012.2
20260903033703 83 181 0.0 0.0 0.00 0.00 0.00 67 1012.3
20260903033206 84 187 0.0 3.0 0.00 0.00 0.00 67 1012.3
20260903032703 84 184 0.0 3.0 0.00 0.00 0.00 67 1012.3
20260903032204 84 183 0.0 2.0 0.00 0.00 0.00 66 1012.3
20260903031704 84 193 0.0 0.0 0.00 0.00 0.00 65 1012.2
20260903031204 84 155 0.0 2.0 0.00 0.00 0.00 65 1012.2
20260903030703 84 164 0.0 1.0 0.00 0.00 0.00 64 1012.2
20260903025703 85 102 0.0 2.0 0.00 0.00 0.00 64 1012.1
20260903025204 85 198 1.0 2.0 0.00 0.00 0.00 63 1012.0
20260903024703 85 181 0.0 2.0 0.00 0.00 0.00 63 1012.1
20260903024204 85 190 0.0 3.0 0.00 0.00 0.00 63 1012.1
20260903023703 85 196 0.0 2.0 0.00 0.00 0.00 62 1011.9
20260903023203 85 117 0.0 3.0 0.00 0.00 0.00 62 1011.9
20260903022704 85 199 0.0 2.0 0.00 0.00 0.00 62 1011.9
20260903022204 85 171 0.0 0.0 0.00 0.00 0.00 61 1011.8
20260903021703 85 180 0.0 1.0 0.00 0.00 0.00 61 1011.7
20260903021204 85 197 0.0 0.0 0.00 0.00 0.00 61 1011.7
20260903020704 85 197 0.0 0.0 0.00 0.00 0.00 60 1011.7
20260903020204 85 161 0.0 0.0 0.00 0.00 0.00 60 1011.7
20260903015703 86 89 0.0 1.0 0.00 0.00 0.00 59 1011.6
20260903015204 86 193 0.0 0.0 0.00 0.00 0.00 58 1011.5
20260903014703 86 193 0.0 0.0 0.00 0.00 0.00 58 1011.4
20260903014204 87 193 0.0 0.0 0.00 0.00 0.00 57 1011.4
20260903013703 87 193 0.0 0.0 0.00 0.00 0.00 57 1011.2
20260903013204 87 193 0.0 0.0 0.00 0.00 0.00 56 1011.1
20260903012703 88 193 0.0 0.0 0.00 0.00 0.00 56 1011.1
20260903012204 88 193 0.0 0.0 0.00 0.00 0.00 55 1011.1
20260903011703 88 193 0.0 0.0 0.00 0.00 0.00 54 1010.9
20260903011204 89 144 0.0 1.0 0.00 0.00 0.00 54 1010.8
20260903010703 89 139 1.0 3.0 0.00 0.00 0.00 53 1010.9
20260903010204 89 143 0.0 2.0 0.00 0.00 0.00 52 1010.8
20260903005703 89 228 0.0 1.0 0.00 0.00 0.00 52 1010.7
20260903005204 89 140 0.0 2.0 0.00 0.00 0.00 51 1010.7
20260903004703 90 174 0.0 0.0 0.00 0.00 0.00 50 1010.7
20260903004203 90 170 0.0 0.0 0.00 0.00 0.00 50 1010.7
20260903003704 91 170 0.0 0.0 0.00 0.00 0.00 48 1010.6
20260903003203 92 170 0.0 0.0 0.00 0.00 0.00 48 1010.5
20260903002704 92 74 0.0 0.0 0.00 0.00 0.00 47 1010.5
20260903001703 94 167 0.0 0.0 0.00 0.00 0.00 45 1010.6
20260903001204 94 156 0.0 0.0 0.00 0.00 0.00 45 1010.6
20260903000704 95 82 0.0 0.0 0.00 0.00 0.00 44 1010.5
20260903000204 96 89 0.0 1.0 0.00 0.00 0.00 42 1010.5
20260902235703 97 107 1.0 2.0 0.00 0.00 0.00 41 1010.6
20260902235204 97 60 0.0 1.0 0.00 0.00 0.00 42 1010.5
20260902234703 98 58 1.0 3.0 0.00 0.00 0.00 41 1010.6
20260902234204 98 110 0.0 1.0 0.00 0.00 0.00 41 1010.6
20260902233704 97 169 0.0 2.0 0.00 0.00 0.00 41 1010.6
20260902233204 98 89 1.0 3.0 0.00 0.00 0.00 40 1010.6
20260902232703 98 49 0.0 2.0 0.00 0.00 0.00 40 1010.7
20260902231703 98 169 2.0 3.0 0.00 0.00 0.00 39 1010.7
20260902231204 98 102 0.0 7.0 0.00 0.00 0.00 39 1010.8
20260902230704 98 104 1.0 3.0 0.00 0.00 0.00 39 1010.9
20260902230203 98 174 1.0 3.0 0.00 0.00 0.00 39 1010.9
20260902225203 98 113 1.0 3.0 0.00 0.00 0.00 39 1010.9
20260902223204 98 200 2.0 6.0 0.00 0.00 0.00 39 1011.0
20260902222704 99 73 0.0 1.0 0.00 0.00 0.00 39 1011.0
20260902222204 99 44 1.0 3.0 0.00 0.00 0.00 38 1011.1
20260902221704 99 140 2.0 5.0 0.00 0.00 0.00 38 1011.1
20260902221203 99 134 1.0 3.0 0.00 0.00 0.00 38 1011.1
20260902220704 99 128 1.0 3.0 0.00 0.00 0.00 37 1011.1
20260902220204 100 192 2.0 7.0 0.00 0.00 0.00 37 1011.0
20260902215703 100 215 2.0 7.0 0.00 0.00 0.00 37 1011.1
20260902215204 100 165 1.0 9.0 0.00 0.00 0.00 36 1011.1
20260902214704 100 72 1.0 6.0 0.00 0.00 0.00 36 1011.1
20260902214203 101 169 3.0 8.0 0.00 0.00 0.00 36 1011.1
20260902213704 101 188 2.0 6.0 0.00 0.00 0.00 37 1011.1
20260902213203 100 196 0.0 5.0 0.00 0.00 0.00 37 1011.1
20260902212204 101 86 1.0 3.0 0.00 0.00 0.00 37 1011.1
20260902211704 100 240 2.0 5.0 0.00 0.00 0.00 38 1011.2
20260902211204 99 125 3.0 8.0 0.00 0.00 0.00 38 1011.2
20260902210703 100 108 3.0 6.0 0.00 0.00 0.00 38 1011.3
20260902210203 100 203 4.0 9.0 0.00 0.00 0.00 38 1011.3
20260902205704 100 91 2.0 6.0 0.00 0.00 0.00 39 1011.4
20260902205204 99 175 1.0 3.0 0.00 0.00 0.00 39 1011.4
20260902204703 99 46 2.0 5.0 0.00 0.00 0.00 39 1011.6
20260902204204 98 91 2.0 5.0 0.00 0.00 0.00 40 1011.6
20260902203703 99 62 4.0 7.0 0.00 0.00 0.00 39 1011.7
20260902203203 99 31 2.0 6.0 0.00 0.00 0.00 39 1011.8
20260902202704 99 155 2.0 5.0 0.00 0.00 0.00 39 1011.9
20260902202203 99 80 2.0 3.0 0.00 0.00 0.00 39 1012.0
20260902201704 99 215 4.0 12.0 0.00 0.00 0.00 40 1012.0
20260902201204 99 130 2.0 8.0 0.00 0.00 0.00 40 1012.0
20260902200703 98 171 3.0 10.0 0.00 0.00 0.00 41 1012.0
20260902200204 98 199 2.0 10.0 0.00 0.00 0.00 41 1012.1
20260902195703 99 75 5.0 9.0 0.00 0.00 0.00 40 1012.1
20260902195204 99 56 2.0 9.0 0.00 0.00 0.00 40 1012.2
20260902194703 98 228 2.0 8.0 0.00 0.00 0.00 41 1012.3
20260902194203 99 194 5.0 9.0 0.00 0.00 0.00 40 1012.3
20260902193704 98 184 1.0 2.0 0.00 0.00 0.00 42 1012.4
20260902193204 98 221 2.0 6.0 0.00 0.00 0.00 41 1012.5
20260902192204 99 82 1.0 3.0 0.00 0.00 0.00 42 1012.7
20260902191704 98 110 1.0 5.0 0.00 0.00 0.00 43 1012.8
20260902191204 97 169 3.0 12.0 0.00 0.00 0.00 44 1012.8
20260902190203 98 221 1.0 3.0 0.00 0.00 0.00 43 1012.8
20260902185704 98 231 3.0 6.0 0.00 0.00 0.00 44 1012.9
20260902185205 97 160 0.0 3.0 0.00 0.00 0.00 46 1013.0
20260902184704 96 67 1.0 3.0 0.00 0.00 0.00 45 1013.1
20260902184204 96 140 2.0 3.0 0.00 0.00 0.00 46 1013.2
20260902183704 96 279 1.0 3.0 0.00 0.00 0.00 47 1013.2
20260902183204 96 197 0.0 1.0 0.00 0.00 0.00 46 1013.3
20260902182703 96 162 2.0 6.0 0.00 0.00 0.00 46 1013.3
20260902182204 96 144 1.0 6.0 0.00 0.00 0.00 46 1013.5
20260902181704 96 37 0.0 3.0 0.00 0.00 0.00 47 1013.5
20260902181203 96 58 0.0 2.0 0.00 0.00 0.00 48 1013.5
20260902180704 96 211 0.0 3.0 0.00 0.00 0.00 46 1013.7
20260902180203 97 200 1.0 7.0 0.00 0.00 0.00 45 1013.7
20260902175703 97 67 1.0 3.0 0.00 0.00 0.00 46 1013.7
20260902175203 96 72 1.0 3.0 0.00 0.00 0.00 46 1013.8
20260902174704 97 206 3.0 7.0 0.00 0.00 0.00 45 1013.9
20260902174203 97 173 3.0 9.0 0.00 0.00 0.00 44 1014.0
20260902173704 98 183 3.0 8.0 0.00 0.00 0.00 44 1014.0
20260902172704 96 184 3.0 9.0 0.00 0.00 0.00 47 1014.3
20260902172203 96 119 2.0 6.0 0.00 0.00 0.00 47 1014.4
20260902171704 96 150 2.0 7.0 0.00 0.00 0.00 47 1014.3
20260902170703 95 205 2.0 5.0 0.00 0.00 0.00 48 1014.5
20260902170203 95 107 1.0 3.0 0.00 0.00 0.00 49 1014.6
20260902165704 95 170 2.0 5.0 0.00 0.00 0.00 49 1014.6
20260902165203 95 358 1.0 6.0 0.00 0.00 0.00 50 1014.6
20260902164704 94 173 2.0 5.0 0.00 0.00 0.00 50 1014.8
20260902164203 93 271 1.0 7.0 0.00 0.00 0.00 52 1014.8
20260902163204 93 37 1.0 10.0 0.00 0.00 0.00 52 1014.9
20260902162703 93 180 2.0 8.0 0.00 0.00 0.00 52 1015.0
20260902162204 93 236 2.0 3.0 0.00 0.00 0.00 53 1015.0
20260902161703 93 118 1.0 6.0 0.00 0.00 0.00 53 1015.0
20260902160703 92 145 3.0 7.0 0.00 0.00 0.00 55 1015.1
20260902160203 91 193 5.0 12.0 0.00 0.00 0.00 55 1015.2
20260902155704 91 235 2.0 6.0 0.00 0.00 0.00 56 1015.2
20260902155204 90 269 3.0 7.0 0.00 0.00 0.00 56 1015.3
20260902154704 91 215 3.0 9.0 0.00 0.00 0.00 57 1015.2
20260902154204 91 49 2.0 7.0 0.00 0.00 0.00 59 1015.3
20260902153703 90 155 1.0 3.0 0.00 0.00 0.00 60 1015.2
20260902153204 90 75 2.0 7.0 0.00 0.00 0.00 60 1015.2
20260902152704 90 212 1.0 3.0 0.00 0.00 0.00 61 1015.2
20260902152203 90 141 1.0 3.0 0.00 0.00 0.00 62 1015.2
20260902151704 89 109 2.0 3.0 0.00 0.00 0.00 62 1015.1
20260902151203 89 200 2.0 7.0 0.00 0.00 0.00 61 1015.1
20260902150704 89 161 3.0 8.0 0.00 0.00 0.00 60 1015.1
20260902150204 88 73 0.0 5.0 0.00 0.00 0.00 63 1015.1
20260902145703 88 172 1.0 7.0 0.00 0.00 0.00 63 1015.0
20260902145204 87 202 2.0 5.0 0.00 0.00 0.00 64 1015.0
20260902144704 87 174 2.0 6.0 0.00 0.00 0.00 65 1015.2
20260902144203 86 181 2.0 6.0 0.00 0.00 0.00 66 1015.3
20260902143703 85 103 0.0 3.0 0.00 0.00 0.00 68 1015.2
20260902142203 86 166 1.0 3.0 0.00 0.00 0.00 67 1015.2
20260902141704 86 185 1.0 6.0 0.00 0.00 0.00 66 1015.1
20260902141203 87 112 1.0 2.0 0.00 0.00 0.00 66 1015.3
20260902140704 87 37 0.0 0.0 0.00 0.00 0.00 66 1015.2
20260902140203 87 46 0.0 0.0 0.00 0.00 0.00 66 1015.3
20260902135704 86 91 0.0 0.0 0.00 0.00 0.00 67 1015.4
20260902134203 85 91 0.0 0.0 0.00 0.00 0.00 70 1015.4
20260902133703 84 91 0.0 0.0 0.00 0.00 0.00 71 1015.4
20260902133204 83 91 0.0 0.0 0.00 0.00 0.00 72 1015.4
20260902131704 79 91 0.0 0.0 0.00 0.00 0.00 78 1015.5
20260902130703 78 98 0.0 0.0 0.00 0.00 0.00 80 1015.5
20260902130204 77 101 0.0 0.0 0.00 0.00 0.00 82 1015.5
20260902125203 74 102 0.0 0.0 0.00 0.00 0.00 84 1015.5
20260902124704 74 110 0.0 0.0 0.00 0.00 0.00 84 1015.4
20260902124204 74 110 0.0 0.0 0.00 0.00 0.00 84 1015.4
20260902123703 74 118 0.0 0.0 0.00 0.00 0.00 85 1015.4
20260902123203 74 118 0.0 0.0 0.00 0.00 0.00 85 1015.3
20260902122703 73 118 0.0 0.0 0.00 0.00 0.00 86 1015.3
20260902122203 73 118 0.0 0.0 0.00 0.00 0.00 86 1015.3
20260902121704 73 118 0.0 0.0 0.00 0.00 0.00 86 1015.3
20260902121204 72 118 0.0 0.0 0.00 0.00 0.00 86 1015.2
20260902120704 72 118 0.0 0.0 0.00 0.00 0.00 86 1015.1
20260902120203 73 119 0.0 0.0 0.00 0.00 0.00 86 1015.0
20260902115704 73 118 0.0 0.0 0.00 0.00 0.00 85 1014.9
20260902115204 73 118 0.0 0.0 0.00 0.00 0.00 85 1014.8
20260902114704 73 118 0.0 0.0 0.00 0.00 0.00 85 1014.9
20260902114204 73 118 0.0 0.0 0.00 0.00 0.00 85 1014.8
20260902113704 73 119 0.0 0.0 0.00 0.00 0.00 85 1014.8
20260902113204 73 118 0.0 0.0 0.00 0.00 0.00 85 1014.7
20260902112704 73 118 0.0 0.0 0.00 0.00 0.00 85 1014.7
20260902111704 73 118 0.0 0.0 0.00 0.00 0.00 85 1014.6
20260902111204 73 118 0.0 0.0 0.00 0.00 0.00 85 1014.6
20260902110704 73 119 0.0 0.0 0.00 0.00 0.00 84 1014.6
20260902110203 73 118 0.0 0.0 0.00 0.00 0.00 84 1014.5
20260902105203 73 118 0.0 0.0 0.00 0.00 0.00 84 1014.4
20260902104204 74 118 0.0 0.0 0.00 0.00 0.00 83 1014.3
20260902103204 74 118 0.0 0.0 0.00 0.00 0.00 83 1014.2
20260902102704 74 118 0.0 0.0 0.00 0.00 0.00 82 1014.2
20260902102203 74 122 0.0 0.0 0.00 0.00 0.00 82 1014.2
20260902101704 74 124 0.0 0.0 0.00 0.00 0.00 82 1014.2
20260902101204 74 124 0.0 0.0 0.00 0.00 0.00 82 1014.2
20260902100704 75 124 0.0 0.0 0.00 0.00 0.00 81 1014.3
20260902100204 75 124 0.0 0.0 0.00 0.00 0.00 81 1014.3
20260902095204 75 121 0.0 0.0 0.00 0.00 0.00 81 1014.2
20260902094204 75 121 0.0 0.0 0.00 0.00 0.00 81 1014.2
20260902093703 75 121 0.0 0.0 0.00 0.00 0.00 81 1014.1
20260902093203 75 121 0.0 0.0 0.00 0.00 0.00 80 1014.1
20260902092703 75 121 0.0 0.0 0.00 0.00 0.00 80 1014.1
20260902092203 75 121 0.0 0.0 0.00 0.00 0.00 80 1014.1
20260902090704 76 121 0.0 0.0 0.00 0.00 0.00 79 1014.1
20260902085703 76 121 0.0 0.0 0.00 0.00 0.00 79 1014.0
20260902084703 76 126 0.0 0.0 0.00 0.00 0.00 79 1014.1
20260902084203 76 126 0.0 0.0 0.00 0.00 0.00 79 1014.1
20260902083703 76 126 0.0 0.0 0.00 0.00 0.00 79 1014.1
20260902083204 76 126 0.0 0.0 0.00 0.00 0.00 79 1014.1
20260902082704 76 126 0.0 0.0 0.00 0.00 0.00 78 1014.1
20260902082203 76 126 0.0 0.0 0.00 0.00 0.00 78 1014.1
20260902081704 76 126 0.0 0.0 0.00 0.00 0.00 78 1014.1
20260902080704 76 126 0.0 0.0 0.00 0.00 0.00 78 1014.2